GW4109 Weather Reports


time (UTC)temp
F
wind
direction
speed
knots
gust
knots
rain 1hr
in
rain 24hr
in
rain mn
in
humidity
%
barometer
mb
20260903221857 98 242 13.0 18.2 0.00 0.00 0.00 17 1012.2
20260903221355 99 229 11.3 17.4 0.00 0.00 0.00 16 1012.4
20260903220854 100 259 7.8 14.8 0.00 0.00 0.00 15 1012.3
20260903220348 99 304 7.8 11.3 0.00 0.00 0.00 16 1012.4
20260903215847 100 241 11.3 13.0 0.00 0.00 0.00 16 1012.3
20260903215343 99 231 9.6 13.0 0.00 0.00 0.00 16 1012.4
20260903214842 99 286 7.8 11.3 0.00 0.00 0.00 16 1012.4
20260903214338 99 246 14.8 15.6 0.00 0.00 0.00 16 1012.2
20260903213837 99 302 7.0 13.9 0.00 0.00 0.00 16 1012.4
20260903213332 99 254 12.2 13.0 0.00 0.00 0.00 16 1012.5
20260903212828 99 263 6.1 16.5 0.00 0.00 0.00 15 1012.6
20260903212325 99 265 3.5 13.0 0.00 0.00 0.00 15 1012.6
20260903211824 99 327 11.3 17.4 0.00 0.00 0.00 15 1012.7
20260903211320 99 310 7.8 13.0 0.00 0.00 0.00 15 1012.8
20260903210816 100 309 7.0 12.2 0.00 0.00 0.00 14 1012.7
20260903210311 100 319 8.7 11.3 0.00 0.00 0.00 14 1012.8
20260903205810 99 310 4.3 13.0 0.00 0.00 0.00 14 1012.8
20260903205310 99 259 7.0 11.3 0.00 0.00 0.00 14 1012.9
20260903204805 99 309 5.2 11.3 0.00 0.00 0.00 13 1012.9
20260903204301 99 299 2.6 11.3 0.00 0.00 0.00 13 1012.8
20260903203757 99 308 7.0 9.6 0.00 0.00 0.00 13 1012.8
20260903203252 100 290 7.0 9.6 0.00 0.00 0.00 13 1013.0
20260903202751 101 346 3.5 5.2 0.00 0.00 0.00 12 1013.0
20260903202248 100 308 4.3 5.2 0.00 0.00 0.00 12 1013.2
20260903201746 99 301 4.3 7.8 0.00 0.00 0.00 12 1013.2
20260903201242 99 105 0.9 7.0 0.00 0.00 0.00 11 1013.0
20260903200741 98 297 3.5 4.3 0.00 0.00 0.00 11 1013.3
20260903200236 99 354 2.6 5.2 0.00 0.00 0.00 12 1013.3
20260903195732 100 187 2.6 3.5 0.00 0.00 0.00 10 1013.4
20260903195228 100 201 0.9 3.5 0.00 0.00 0.00 10 1013.4
20260903194728 100 344 0.9 2.6 0.00 0.00 0.00 10 1013.5
20260903194223 99 221 3.5 3.5 0.00 0.00 0.00 11 1013.7
20260903193719 98 63 1.7 4.3 0.00 0.00 0.00 11 1013.5
20260903193214 100 86 0.0 2.6 0.00 0.00 0.00 10 1013.8
20260903192710 98 39 1.7 3.5 0.00 0.00 0.00 11 1013.9
20260903192205 98 102 4.3 5.2 0.00 0.00 0.00 11 1014.0
20260903191701 96 275 0.9 7.0 0.00 0.00 0.00 11 1014.0
20260903191156 98 118 2.6 3.5 0.00 0.00 0.00 11 1014.1
20260903190651 99 55 0.0 3.5 0.00 0.00 0.00 10 1014.3
20260903190151 99 221 0.0 3.5 0.00 0.00 0.00 10 1014.3
20260903185646 97 84 0.9 5.2 0.00 0.00 0.00 10 1014.3
20260903185141 97 77 2.6 6.1 0.00 0.00 0.00 11 1014.5
20260903184638 98 220 1.7 3.5 0.00 0.00 0.00 11 1014.6
20260903184133 97 67 2.6 4.3 0.00 0.00 0.00 11 1014.6
20260903183631 96 307 3.5 3.5 0.00 0.00 0.00 11 1014.8
20260903183126 96 105 0.0 3.5 0.00 0.00 0.00 11 1014.7
20260903182626 96 96 2.6 3.5 0.00 0.00 0.00 11 1014.9
20260903182122 96 74 3.5 4.3 0.00 0.00 0.00 11 1015.0
20260903181620 96 139 0.9 3.5 0.00 0.00 0.00 10 1015.1
20260903181115 95 230 0.0 5.2 0.00 0.00 0.00 11 1015.1
20260903180610 95 251 2.6 3.5 0.00 0.00 0.00 11 1015.1
20260903180104 96 115 1.7 3.5 0.00 0.00 0.00 10 1015.0
20260903175603 95 84 1.7 5.2 0.00 0.00 0.00 10 1015.2
20260903175103 94 100 3.5 3.5 0.00 0.00 0.00 10 1015.2
20260903174558 92 84 1.7 4.3 0.00 0.00 0.00 11 1015.3
20260903174052 93 269 0.0 2.6 0.00 0.00 0.00 11 1015.3
20260903173547 94 150 0.0 2.6 0.00 0.00 0.00 10 1015.4
20260903173045 93 143 1.7 1.7 0.00 0.00 0.00 10 1015.3
20260903172544 92 143 0.9 3.5 0.00 0.00 0.00 11 1015.3
20260903172040 92 88 2.6 5.2 0.00 0.00 0.00 11 1015.2
20260903171535 93 5 0.9 1.7 0.00 0.00 0.00 12 1015.4
20260903171030 92 104 1.7 3.5 0.00 0.00 0.00 12 1015.1
20260903170523 91 128 1.7 2.6 0.00 0.00 0.00 12 1015.5
20260903170019 90 86 1.7 3.5 0.00 0.00 0.00 11 1015.4
20260903165516 90 322 0.0 3.5 0.00 0.00 0.00 12 1015.5
20260903165012 92 58 0.9 2.6 0.00 0.00 0.00 11 1015.4
20260903164506 91 66 1.7 2.6 0.00 0.00 0.00 12 1015.4
20260903164001 90 94 0.0 2.6 0.00 0.00 0.00 11 1015.2
20260903163456 90 293 0.0 1.7 0.00 0.00 0.00 11 1015.4
20260903162952 89 99 1.7 3.5 0.00 0.00 0.00 12 1015.1
20260903162448 89 349 1.7 1.7 0.00 0.00 0.00 13 1015.4
20260903161944 89 83 1.7 1.7 0.00 0.00 0.00 12 1015.3
20260903161434 89 68 1.7 1.7 0.00 0.00 0.00 12 1015.3
20260903160930 89 51 0.0 1.7 0.00 0.00 0.00 12 1015.4
20260903160429 88 81 1.7 2.6 0.00 0.00 0.00 12 1015.5
20260903155928 89 51 1.7 1.7 0.00 0.00 0.00 13 1015.4
20260903155423 88 43 0.9 1.7 0.00 0.00 0.00 13 1015.3
20260903154919 88 79 1.7 3.5 0.00 0.00 0.00 12 1015.3
20260903154414 88 87 3.5 3.5 0.00 0.00 0.00 12 1015.5
20260903153914 87 39 0.0 1.7 0.00 0.00 0.00 13 1015.2
20260903153409 87 22 0.0 2.6 0.00 0.00 0.00 14 1015.6
20260903152906 87 357 1.7 1.7 0.00 0.00 0.00 15 1015.5
20260903152401 86 41 1.7 1.7 0.00 0.00 0.00 15 1015.4
20260903151857 87 65 1.7 2.6 0.00 0.00 0.00 14 1015.5
20260903151352 85 320 1.7 1.7 0.00 0.00 0.00 14 1015.4
20260903150847 85 28 0.0 2.6 0.00 0.00 0.00 16 1015.4
20260903150346 88 318 0.0 0.9 0.00 0.00 0.00 13 1015.4
20260903145841 85 48 0.0 0.9 0.00 0.00 0.00 13 1015.3
20260903145337 83 17 0.9 1.7 0.00 0.00 0.00 15 1015.6
20260903144836 86 13 0.0 0.9 0.00 0.00 0.00 14 1015.4
20260903144331 83 27 0.0 1.7 0.00 0.00 0.00 14 1015.3
20260903143826 80 75 0.0 1.7 0.00 0.00 0.00 15 1015.4
20260903143323 78 141 0.0 0.9 0.00 0.00 0.00 15 1015.3
20260903142818 76 147 0.0 1.7 0.00 0.00 0.00 16 1015.3
20260903142315 76 248 0.0 1.7 0.00 0.00 0.00 16 1015.4
20260903141810 75 180 0.9 1.7 0.00 0.00 0.00 16 1015.2
20260903141306 72 180 1.7 1.7 0.00 0.00 0.00 18 1015.3
20260903140806 72 209 1.7 2.6 0.00 0.00 0.00 17 1015.3
20260903140300 71 226 0.0 1.7 0.00 0.00 0.00 18 1015.3
20260903135756 70 185 0.9 1.7 0.00 0.00 0.00 19 1015.1
20260903135252 69 187 0.9 1.7 0.00 0.00 0.00 19 1015.0
20260903134750 68 225 1.7 1.7 0.00 0.00 0.00 19 1015.0
20260903134247 69 241 0.9 3.5 0.00 0.00 0.00 18 1015.0
20260903133743 68 260 1.7 2.6 0.00 0.00 0.00 18 1014.9
20260903133240 66 237 1.7 1.7 0.00 0.00 0.00 18 1015.0
20260903132740 67 225 0.9 1.7 0.00 0.00 0.00 18 1014.9
20260903132235 67 242 0.0 1.7 0.00 0.00 0.00 18 1014.9
20260903131731 67 95 0.0 1.7 0.00 0.00 0.00 18 1015.1
20260903131224 69 290 0.0 1.7 0.00 0.00 0.00 18 1015.0
20260903130719 67 97 2.6 3.5 0.00 0.00 0.00 18 1014.8
20260903130214 67 246 0.9 1.7 0.00 0.00 0.00 17 1014.9
20260903125712 66 126 1.7 2.6 0.00 0.00 0.00 17 1014.9
20260903125208 66 264 1.7 2.6 0.00 0.00 0.00 17 1014.8
20260903124707 66 159 0.0 1.7 0.00 0.00 0.00 18 1015.0
20260903124203 67 175 1.7 2.6 0.00 0.00 0.00 18 1014.7
20260903123701 66 317 0.0 0.9 0.00 0.00 0.00 18 1014.9
20260903123200 66 229 0.9 1.7 0.00 0.00 0.00 18 1014.8
20260903122659 67 245 0.0 1.7 0.00 0.00 0.00 20 1014.9
20260903122154 66 252 0.9 1.7 0.00 0.00 0.00 19 1014.7
20260903121652 66 200 0.9 1.7 0.00 0.00 0.00 20 1014.7
20260903121149 67 250 0.0 1.7 0.00 0.00 0.00 21 1014.8
20260903120648 68 206 0.0 1.7 0.00 0.00 0.00 20 1014.7
20260903120142 68 299 0.0 1.7 0.00 0.00 0.00 20 1014.7
20260903115640 69 193 0.0 1.7 0.00 0.00 0.00 20 1014.7
20260903115136 69 224 0.0 0.9 0.00 0.00 0.00 19 1014.9
20260903114631 69 13 0.0 1.7 0.00 0.00 0.00 19 1015.0
20260903114126 68 56 0.0 0.9 0.00 0.00 0.00 19 1015.0
20260903113622 67 25 0.0 1.7 0.00 0.00 0.00 18 1015.0
20260903113118 68 283 0.0 1.7 0.00 0.00 0.00 17 1014.8
20260903112614 68 154 0.9 1.7 0.00 0.00 0.00 17 1014.8
20260903112114 68 250 0.9 1.7 0.00 0.00 0.00 18 1014.8
20260903111613 67 151 1.7 1.7 0.00 0.00 0.00 18 1015.0
20260903111109 69 188 0.9 1.7 0.00 0.00 0.00 18 1014.9
20260903110605 68 284 0.0 1.7 0.00 0.00 0.00 18 1014.9
20260903110059 70 205 1.7 1.7 0.00 0.00 0.00 17 1014.8
20260903105554 69 62 0.0 1.7 0.00 0.00 0.00 18 1015.0
20260903105049 70 251 1.7 1.7 0.00 0.00 0.00 17 1014.9
20260903104543 70 198 1.7 2.6 0.00 0.00 0.00 17 1014.9
20260903104039 70 236 0.0 1.7 0.00 0.00 0.00 18 1015.0
20260903103535 71 237 0.0 1.7 0.00 0.00 0.00 18 1014.9
20260903103026 70 192 0.0 1.7 0.00 0.00 0.00 18 1014.9
20260903102521 71 215 0.9 2.6 0.00 0.00 0.00 17 1014.7
20260903102019 70 148 0.9 1.7 0.00 0.00 0.00 18 1014.9
20260903101514 69 193 1.7 2.6 0.00 0.00 0.00 18 1014.7
20260903101010 68 248 1.7 1.7 0.00 0.00 0.00 19 1014.9
20260903100505 71 287 0.9 1.7 0.00 0.00 0.00 18 1014.8
20260903100003 72 209 0.9 1.7 0.00 0.00 0.00 18 1014.9
20260903095501 72 227 0.0 1.7 0.00 0.00 0.00 18 1014.9
20260903094956 72 208 1.7 2.6 0.00 0.00 0.00 18 1014.9
20260903094456 73 158 0.9 1.7 0.00 0.00 0.00 18 1014.9
20260903093953 73 198 1.7 2.6 0.00 0.00 0.00 18 1015.0
20260903093447 71 231 0.9 1.7 0.00 0.00 0.00 20 1015.0
20260903092943 72 183 0.9 1.7 0.00 0.00 0.00 21 1015.1
20260903092443 72 121 0.9 0.9 0.00 0.00 0.00 21 1015.1
20260903091942 72 230 0.0 0.9 0.00 0.00 0.00 21 1015.0
20260903091440 73 122 0.0 1.7 0.00 0.00 0.00 21 1015.0
20260903090935 71 187 0.9 1.7 0.00 0.00 0.00 21 1015.1
20260903090431 70 221 0.9 1.7 0.00 0.00 0.00 22 1015.0
20260903085929 71 173 0.9 2.6 0.00 0.00 0.00 22 1015.0
20260903085428 71 182 0.9 2.6 0.00 0.00 0.00 22 1015.2
20260903084928 70 209 0.9 1.7 0.00 0.00 0.00 22 1015.1
20260903084426 73 269 0.9 1.7 0.00 0.00 0.00 21 1015.0
20260903083922 72 123 0.0 1.7 0.00 0.00 0.00 21 1015.1
20260903083418 74 260 1.7 2.6 0.00 0.00 0.00 20 1015.2
20260903082917 75 84 0.0 2.6 0.00 0.00 0.00 20 1015.2
20260903082412 73 151 0.9 1.7 0.00 0.00 0.00 21 1015.2
20260903081907 73 218 0.0 1.7 0.00 0.00 0.00 21 1015.3
20260903081402 73 207 0.0 1.7 0.00 0.00 0.00 21 1015.3
20260903080858 72 164 0.9 1.7 0.00 0.00 0.00 21 1015.5
20260903080355 73 180 0.9 1.7 0.00 0.00 0.00 21 1015.5
20260903075855 72 130 0.0 2.6 0.00 0.00 0.00 21 1015.4
20260903075351 72 179 1.7 2.6 0.00 0.00 0.00 21 1015.6
20260903074851 72 204 1.7 2.6 0.00 0.00 0.00 20 1015.6
20260903074345 71 120 0.0 1.7 0.00 0.00 0.00 21 1015.5
20260903073841 71 249 1.7 1.7 0.00 0.00 0.00 20 1015.7
20260903073341 73 145 0.0 1.7 0.00 0.00 0.00 20 1015.6
20260903072837 74 132 0.0 1.7 0.00 0.00 0.00 20 1015.5
20260903072333 73 318 0.0 0.9 0.00 0.00 0.00 20 1015.8
20260903071829 73 157 0.9 2.6 0.00 0.00 0.00 20 1015.4
20260903071325 74 324 1.7 2.6 0.00 0.00 0.00 19 1015.8
20260903070820 77 235 0.0 0.9 0.00 0.00 0.00 20 1015.8
20260903070315 78 159 0.9 0.9 0.00 0.00 0.00 20 1015.7
20260903065810 78 129 0.9 2.6 0.00 0.00 0.00 19 1015.8
20260903065309 77 116 0.0 1.7 0.00 0.00 0.00 19 1015.8
20260903064809 76 217 1.7 3.5 0.00 0.00 0.00 20 1015.8
20260903064304 77 241 0.0 0.9 0.00 0.00 0.00 20 1015.9
20260903063800 77 129 0.9 3.5 0.00 0.00 0.00 20 1015.9
20260903063255 77 95 0.9 3.5 0.00 0.00 0.00 21 1015.9
20260903062751 77 112 2.6 5.2 0.00 0.00 0.00 21 1015.8
20260903062250 77 82 2.6 3.5 0.00 0.00 0.00 22 1016.0
20260903061747 78 97 2.6 3.5 0.00 0.00 0.00 21 1015.9
20260903061245 78 132 0.9 2.6 0.00 0.00 0.00 21 1015.8
20260903060742 78 60 1.7 2.6 0.00 0.00 0.00 21 1015.8
20260903060241 79 65 1.7 3.5 0.00 0.00 0.00 21 1016.0
20260903055739 78 75 0.0 1.7 0.00 0.00 0.00 21 1015.9
20260903055237 78 52 0.9 0.9 0.00 0.00 0.00 21 1016.1
20260903054733 80 10 1.7 1.7 0.00 0.00 0.00 20 1016.0
20260903054228 81 65 1.7 2.6 0.00 0.00 0.00 20 1016.0
20260903053725 83 26 1.7 5.2 0.00 0.00 0.00 18 1016.0
20260903053224 83 298 5.2 10.4 0.00 0.00 0.00 14 1016.2
20260903052720 83 290 4.3 8.7 0.00 0.00 0.00 16 1016.2
20260903052215 83 317 5.2 12.2 0.00 0.00 0.00 16 1016.1
20260903051710 83 281 4.3 7.0 0.00 0.00 0.00 17 1016.1
20260903051206 83 288 4.3 7.0 0.00 0.00 0.00 17 1016.0
20260903050702 83 252 4.3 8.7 0.00 0.00 0.00 17 1016.0
20260903050200 78 255 1.7 1.7 0.00 0.00 0.00 19 1015.9
20260903045655 77 219 1.7 4.3 0.00 0.00 0.00 19 1016.1
20260903045152 79 170 0.9 2.6 0.00 0.00 0.00 19 1016.0
20260903044647 80 256 0.0 1.7 0.00 0.00 0.00 19 1016.1
20260903044137 80 186 0.0 1.7 0.00 0.00 0.00 20 1016.0
20260903043634 82 174 0.9 2.6 0.00 0.00 0.00 21 1016.1
20260903043132 82 13 0.0 1.7 0.00 0.00 0.00 21 1015.9
20260903042632 82 62 0.0 1.7 0.00 0.00 0.00 20 1015.9
20260903042127 81 165 1.7 1.7 0.00 0.00 0.00 20 1015.9
20260903041624 82 27 1.7 3.5 0.00 0.00 0.00 19 1015.8
20260903041120 82 89 3.5 3.5 0.00 0.00 0.00 18 1015.7
20260903040618 82 101 2.6 3.5 0.00 0.00 0.00 18 1015.8
20260903040115 83 83 1.7 2.6 0.00 0.00 0.00 16 1015.5
20260903035610 84 20 0.9 2.6 0.00 0.00 0.00 15 1015.6
20260903035106 85 15 1.7 1.7 0.00 0.00 0.00 15 1015.5
20260903034600 85 240 0.0 1.7 0.00 0.00 0.00 15 1015.4
20260903034055 86 57 0.9 1.7 0.00 0.00 0.00 14 1015.4
20260903033551 86 308 0.0 4.3 0.00 0.00 0.00 14 1015.3
20260903033046 86 14 0.9 3.5 0.00 0.00 0.00 15 1015.3
20260903032541 87 255 4.3 8.7 0.00 0.00 0.00 14 1015.2
20260903032036 86 335 0.0 5.2 0.00 0.00 0.00 15 1014.9
20260903031536 87 342 1.7 5.2 0.00 0.00 0.00 14 1014.9
20260903031031 87 307 4.3 6.1 0.00 0.00 0.00 15 1015.0
20260903030526 87 227 6.1 10.4 0.00 0.00 0.00 15 1014.9
20260903030023 87 268 2.6 10.4 0.00 0.00 0.00 15 1014.8
20260903025518 87 274 4.3 13.0 0.00 0.00 0.00 15 1014.7
20260903025014 87 266 3.5 7.0 0.00 0.00 0.00 15 1014.7
20260903024514 87 247 5.2 7.8 0.00 0.00 0.00 14 1014.6
20260903024013 87 272 4.3 6.1 0.00 0.00 0.00 14 1014.7
20260903023509 87 290 3.5 6.1 0.00 0.00 0.00 13 1014.5
20260903023004 88 218 3.5 5.2 0.00 0.00 0.00 14 1014.5
20260903022504 88 258 7.0 8.7 0.00 0.00 0.00 15 1014.4
20260903022002 88 215 0.9 6.1 0.00 0.00 0.00 13 1014.5
20260903021457 88 264 2.6 7.8 0.00 0.00 0.00 14 1014.6
20260903020952 88 255 2.6 4.3 0.00 0.00 0.00 15 1014.5
20260903020448 88 242 0.9 3.5 0.00 0.00 0.00 16 1014.4
20260903015942 88 248 0.9 2.6 0.00 0.00 0.00 17 1014.7
20260903015438 88 252 3.5 3.5 0.00 0.00 0.00 16 1014.6
20260903014933 89 194 0.9 4.3 0.00 0.00 0.00 15 1014.5
20260903014432 89 331 3.5 3.5 0.00 0.00 0.00 16 1014.4
20260903013927 89 281 2.6 10.4 0.00 0.00 0.00 16 1014.7
20260903013426 90 51 0.9 8.7 0.00 0.00 0.00 15 1014.7
20260903012920 90 245 5.2 7.0 0.00 0.00 0.00 16 1014.8
20260903012414 90 245 8.7 13.0 0.00 0.00 0.00 15 1014.7
20260903011914 90 258 6.1 7.8 0.00 0.00 0.00 17 1014.5
20260903011414 91 258 5.2 11.3 0.00 0.00 0.00 19 1014.6
20260903010909 91 272 5.2 11.3 0.00 0.00 0.00 18 1014.5
20260903010404 93 231 6.1 9.6 0.00 0.00 0.00 18 1014.5
20260903005902 93 255 10.4 12.2 0.00 0.00 0.00 18 1014.4
20260903005357 93 318 6.1 10.4 0.00 0.00 0.00 19 1014.5
20260903004854 94 293 4.3 12.2 0.00 0.00 0.00 18 1014.2
20260903004349 94 263 4.3 14.8 0.00 0.00 0.00 18 1014.2
20260903003844 95 253 8.7 10.4 0.00 0.00 0.00 18 1014.3
20260903003344 94 303 8.7 16.5 0.00 0.00 0.00 18 1014.2
20260903002844 95 314 5.2 12.2 0.00 0.00 0.00 18 1014.1
20260903002339 96 314 6.1 10.4 0.00 0.00 0.00 17 1014.3
20260903001833 96 309 7.8 10.4 0.00 0.00 0.00 17 1014.2
20260903001329 96 298 5.2 13.0 0.00 0.00 0.00 17 1014.1
20260903000829 96 262 4.3 10.4 0.00 0.00 0.00 17 1014.3
20260903000325 97 298 5.2 10.4 0.00 0.00 0.00 17 1014.2
20260902235822 97 297 7.8 11.3 0.00 0.00 0.00 17 1014.3
20260902235318 97 305 5.2 12.2 0.00 0.00 0.00 16 1014.2
20260902234817 98 292 5.2 7.0 0.00 0.00 0.00 15 1014.4
20260902234317 97 330 7.8 14.8 0.00 0.00 0.00 14 1014.2
20260902233816 98 255 5.2 5.2 0.00 0.00 0.00 13 1014.5
20260902233316 98 217 1.7 6.1 0.00 0.00 0.00 13 1014.3
20260902232815 99 301 1.7 6.1 0.00 0.00 0.00 13 1014.1
20260902232310 98 301 5.2 13.9 0.00 0.00 0.00 13 1014.5
20260902231809 99 255 6.1 11.3 0.00 0.00 0.00 13 1014.5
20260902231304 99 303 6.1 6.1 0.00 0.00 0.00 13 1014.6
20260902230759 98 147 1.7 6.1 0.00 0.00 0.00 13 1014.7
20260902230258 99 301 9.6 13.0 0.00 0.00 0.00 12 1014.7
20260902225753 98 330 7.8 13.9 0.00 0.00 0.00 13 1014.8
20260902225248 98 332 5.2 13.0 0.00 0.00 0.00 13 1014.8
20260902224746 100 296 6.1 9.6 0.00 0.00 0.00 13 1014.8
20260902224241 99 273 2.6 9.6 0.00 0.00 0.00 13 1014.9
20260902223738 99 321 6.1 7.8 0.00 0.00 0.00 12 1015.0
20260902223236 99 290 3.5 8.7 0.00 0.00 0.00 12 1014.6
20260902222730 99 302 6.1 12.2 0.00 0.00 0.00 13 1015.0
20260902222225 98 313 5.2 13.9 0.00 0.00 0.00 13 1015.0